BEIJING 1 1 28890U 05043A 26257.91695830 .00000169 00000+0 42077-4 0 9991 2 28890 98.3045 31.6933 0014788 6.2533 353.8850 14.63576521113771 HUANJING 1A (HJ-1A) 1 33320U 08041A 26257.97401942 .00000657 00000+0 84571-4 0 9998 2 33320 97.6779 240.3949 0018083 199.7134 160.3384 14.84159415971726 HUANJING 1B (HJ-1B) 1 33321U 08041B 26257.98468062 .00000663 00000+0 86239-4 0 9996 2 33321 97.6611 243.3005 0034658 248.2884 111.4640 14.83460821971723 YAOGAN-4 1 33446U 08061A 26257.28111749 .00000711 00000+0 93247-4 0 9997 2 33446 97.9324 190.1472 0015141 135.9871 224.2551 14.83341177958873 DEIMOS-1 1 35681U 09041A 26257.91902512 .00000164 00000+0 31188-4 0 9993 2 35681 97.7524 51.3251 0000245 97.4865 262.6373 14.75313231920118 UK-DMC 2 1 35683U 09041C 26257.90837116 .00000270 00000+0 46260-4 0 9996 2 35683 97.8965 30.7498 0001227 67.9074 292.2266 14.76139929919804 DMC3-FM1 1 40715U 15032A 26257.91045170 .00000627 00000+0 77984-4 0 9990 2 40715 97.6315 119.5117 0006860 110.2981 249.8972 14.85818489603238 DMC3-FM2 1 40716U 15032B 26257.93207395 .00000807 00000+0 98562-4 0 9997 2 40716 97.6367 121.1662 0007326 114.8984 245.2994 14.85828851603239 DMC3-FM3 1 40717U 15032C 26257.88873502 -.00000076 00000+0 -28219-5 0 9994 2 40717 97.6415 122.9326 0006460 113.8583 246.3310 14.85812864603233